[[{"header":{"parameterUnit":"m.s-1","parameterCategory":1,"la1":30.2991,"la2":30.254,"lo1":-89.0895,"lo2":-89.0444,"dy":0.0017,"dx":0.0017,"nx":28,"ny":28,"refTime":"2024-12-22T09:00:00:Z","depth":0,"parameterNumber":2,"parameterNumberName":"U-component_of_WINDS"},"data":[0,0,0,0,0,0,0,0,0,0,0,0,0,0,0,0,0,0,0,0,0,0,0,0,0,0,0,0,0,0,0,0,0,0,0,0,0,0,0,0,0,0,0,0,0,0,0,0,0,0,0,0,0,0,0,0,0,0,-2.994,-2.994,0,-2.9954,-2.9954,-2.9954,-2.9803,-2.9799,-2.9795,-2.9791,-2.9807,-2.9811,-2.9815,0,0,0,0,0,0,0,0,0,0,0,0,0,-2.9785,-2.9789,-2.994,-2.994,-2.994,-2.9954,-2.9954,-2.9954,-2.9804,-2.9799,-2.9794,-2.9789,-2.9806,-2.9811,-2.9816,0,0,0,0,0,0,0,0,0,0,0,0,0,-2.9831,-2.979,-2.994,-2.9867,-2.9861,-2.9954,-2.9954,-2.9954,-2.9805,-2.9799,-2.9792,-2.9787,-2.9804,-2.981,-2.9817,-2.9981,0,0,-2.9836,-2.9839,0,0,0,0,0,0,0,0,-2.9829,-2.9837,-2.9878,-2.9872,-2.9865,-2.987,-2.9905,-2.9963,-2.9807,-2.9826,-2.9791,-2.9784,-2.9833,-2.9837,-2.9853,-2.9982,-2.9982,-2.9837,-2.9841,-2.9844,-2.9845,0,0,0,0,0,0,0,-2.9826,-2.9835,-2.9945,-2.9878,-2.9871,-2.9834,-2.9834,-2.9915,-2.9865,-2.9824,-2.9813,-2.9817,-2.9829,-2.9847,-2.9852,-2.9983,-2.9837,-2.9842,-2.9846,-2.9849,-3.0246,-3.0252,0,0,0,0,0,0,-2.9832,-2.9834,-2.9945,-2.9946,-2.9831,-2.9842,-2.9841,-2.9875,-2.9863,-2.9855,-2.9822,-2.981,-2.9839,-2.9845,-2.9853,-3.0044,-2.9843,-2.985,-2.9853,-3.0239,-3.0248,-3.0255,0,0,0,0,0,0,-2.9829,-2.9843,-2.9944,-2.9887,-2.9897,-2.9851,-2.989,-2.9879,-2.9897,-2.9862,-2.9852,-2.985,-2.9835,-2.9843,-2.995,-3.0042,-2.9852,-2.9858,-3.0232,-3.0242,-3.0251,-3.0428,0,0,0,0,0,0,-2.9826,-2.9843,-2.9905,-2.9889,-2.9901,-3.0042,-2.9896,-2.9883,-2.9908,-2.9892,-2.9886,-2.9879,-2.9831,-2.9941,-2.9956,-3.0048,-2.9863,-3.0223,-3.0236,-3.0248,-3.0414,-3.0443,-3.0468,0,0,0,0,0,-2.9821,-2.9955,-2.9909,-2.9923,-2.9977,-3.0047,-3.0054,-2.9995,-2.9916,-2.9978,-2.9955,-2.9879,-3.003,-2.9953,-2.9969,-3.0064,-3.0217,-3.0232,-3.0247,-3.0402,-3.0437,-3.0468,0,0,0,0,0,0,-2.9984,-2.9952,-2.99,-3.0033,-3.0044,-3.0022,-3.0098,-3.0035,-3.0068,-3.0052,-2.9978,-2.9978,-3.0097,-3.0091,-3.0006,-3.0222,-3.0109,-3.0129,-3.0222,-3.0255,-3.0282,-3.0281,-2.9869,0,0,0,0,0,-3.0035,-3.0094,-3.0063,-3.0184,-3.0192,-3.0145,-3.0173,-3.0127,-3.0135,-3.0139,-3.0124,-3.0136,-3.0185,-3.022,-3.0264,-3.0412,-3.0409,-3.0485,-3.0512,-3.0535,-3.0552,-3.063,-3.0664,-3.0304,-3.0304,-3.0304,0,0,-3.0142,-3.0132,-3.0174,-3.0216,-3.0219,-3.0283,-3.0149,-3.0222,-3.0269,-3.015,-3.025,-3.024,-3.0247,-3.0376,-3.0431,-3.0374,-3.0651,-3.0554,-3.0572,-3.0577,-3.0649,-3.0683,-3.0713,-3.0314,-3.0313,-3.0311,0,0,-3.0369,-3.0367,-3.0467,-3.0473,-3.0479,-3.0446,-3.047,-3.0458,-3.0446,-3.0544,-3.0456,-3.0511,-3.0599,-3.0608,-3.0624,-3.0855,-3.0786,-3.0871,-3.1013,-3.109,-3.1118,-3.1143,-3.1225,-3.1256,-3.0889,-3.0889,-3.0889,0,-3.0501,-3.0593,-3.0527,-3.0606,-3.0627,-3.0522,-3.0623,-3.0632,-3.0652,-3.067,-3.0605,-3.0712,-3.071,-3.0839,-3.0896,-3.0912,-3.0938,-3.0872,-3.1119,-3.1143,-3.1165,-3.1243,-3.1274,-3.0899,-3.0898,-3.0897,-3.0896,0,-3.0756,-3.0821,-3.0901,-3.0923,-3.0953,-3.1043,-3.0991,-3.1029,-3.0981,-3.0955,-3.1057,-3.1051,-3.1092,-3.1119,-3.1072,-3.1241,-3.1206,-3.1132,-3.1017,-3.1211,-3.1283,-3.1312,-3.0914,-3.091,-3.0907,-3.0905,0,0,-3.1086,-3.107,-3.11,-3.1109,-3.1107,-3.1156,-3.1242,-3.1281,-3.1315,-3.1333,-3.1403,-3.1479,-3.141,-3.1429,-3.1382,-3.145,-3.1633,-3.1367,-3.1366,-3.1417,-3.1819,-3.1875,-3.1911,-3.1587,-3.1593,-3.1597,-3.1819,0,-3.1307,-3.1451,-3.1394,-3.1543,-3.1602,-3.1503,-3.1577,-3.1585,-3.1563,-3.1611,-3.1587,-3.1642,-3.1547,-3.1558,-3.162,-3.1598,-3.1713,-3.1581,-3.1652,-3.1655,-3.1653,-3.1948,-3.2008,-3.2217,-3.1846,-3.1851,-3.1855,0,-3.1585,-3.1613,-3.1768,-3.1755,-3.1778,-3.1846,-3.1877,-3.1924,-3.193,-3.191,-3.1931,-3.1869,-3.1952,-3.1838,-3.1952,-3.1863,-3.1889,-3.1882,-3.1889,-3.1893,-3.1767,-3.1961,-3.2283,-3.2314,-3.1898,-3.1895,-3.1891,0,-3.181,-3.1887,-3.1989,-3.2,-3.1988,-3.2038,-3.2035,-3.2036,-3.2063,-3.209,-3.2107,-3.2145,-3.2165,-3.2196,-3.2146,-3.2068,-3.2267,-3.2149,-3.2253,-3.2254,-3.2299,-3.2297,-3.263,-3.2316,-3.2316,-3.2315,-3.2315,0,-3.2063,-3.2162,-3.209,-3.2154,-3.2261,-3.2195,-3.2303,-3.229,-3.2291,-3.235,-3.2267,-3.2324,-3.2255,-3.2306,-3.2268,-3.2368,-3.2378,-3.2364,-3.2352,-3.2371,-3.2373,-3.2387,-3.2371,-3.2324,-3.2322,-3.232,-3.2319,0,-3.2334,-3.229,-3.2395,-3.2375,-3.2372,-3.2453,-3.2435,-3.2493,-3.2466,-3.2541,-3.2555,-3.2513,-3.2568,-3.2522,-3.2576,-3.255,-3.2683,-3.2651,-3.2681,-3.2672,-3.2778,-3.2769,-3.3132,-3.3176,-3.2835,-3.2838,-3.2841,0,-3.2498,-3.2571,-3.2559,-3.2592,-3.2595,-3.265,-3.2677,-3.2614,-3.2646,-3.2659,-3.2716,-3.2764,-3.2799,-3.2893,-3.2867,-3.2908,-3.2876,-3.3,-3.2882,-3.2898,-3.2878,-3.2874,-3.2881,-3.3025,-3.3029,-3.3032,-3.3035,0,-3.2794,-3.2769,-3.2811,-3.2846,-3.288,-3.2905,-3.2922,-3.2955,-3.289,-3.2931,-3.2986,-3.3013,-3.3068,-3.3117,-3.315,-3.3147,-3.3082,-3.3072,-3.3098,-3.3118,-3.3132,-3.3126,-3.2746,-3.3064,-3.3061,-3.3059,-3.3057,-3.3056,-3.3016,-3.3077,-3.3078,-3.3127,-3.3134,-3.3153,-3.3206,-3.3185,-3.323,-3.3269,-3.3229,-3.3297,-3.3301,-3.3338,-3.3344,-3.3396,-3.3344,-3.3382,-3.3392,-3.3402,-3.3417,-3.3125,-3.3401,-3.34,-3.34,-3.3399,-3.3398,0,-3.3308,-3.3304,-3.335,-3.3377,-3.3416,-3.3349,-3.3366,-3.3403,-3.3463,-3.3473,-3.3509,-3.3573,-3.362,-3.3598,-3.3639,-3.3685,-3.3656,-3.3698,-3.3694,-3.3695,-3.3461,-3.3434,-3.3722,-3.3721,-3.3721,-3.3721,-3.3721,-3.3721,-3.3464,-3.3563,-3.3538,-3.3639,-3.3634,-3.3699,-3.3714,-3.3731,-3.3738,-3.3813,-3.3851,-3.3836,-3.3833,-3.3874,-3.3914,-3.3907,-3.3926,-3.3979,-3.3961,-3.3743,-3.3711,-3.3681,-3.3655,-3.3984,-3.3985,-3.419,-3.4192,-3.4193]},{"header":{"parameterUnit":"m.s-1","parameterCategory":1,"la1":30.2991,"la2":30.254,"lo1":-89.0895,"lo2":-89.0444,"dy":0.0017,"dx":0.0017,"nx":28,"ny":28,"refTime":"2024-12-22T09:00:00:Z","depth":0,"parameterNumber":3,"parameterNumberName":"V-component_of_WINDS"},"data":[0,0,0,0,0,0,0,0,0,0,0,0,0,0,0,0,0,0,0,0,0,0,0,0,0,0,0,0,0,0,0,0,0,0,0,0,0,0,0,0,0,0,0,0,0,0,0,0,0,0,0,0,0,0,0,0,0,0,-1.5585,-1.5585,0,-1.5622,-1.5623,-1.5623,-1.5672,-1.5673,-1.5673,-1.5674,-1.5711,-1.5711,-1.5711,0,0,0,0,0,0,0,0,0,0,0,0,0,-1.5553,-1.5553,-1.5585,-1.5585,-1.5586,-1.5622,-1.5623,-1.5623,-1.5672,-1.5673,-1.5674,-1.5675,-1.5711,-1.5711,-1.5711,0,0,0,0,0,0,0,0,0,0,0,0,0,-1.5576,-1.5553,-1.5584,-1.5614,-1.5617,-1.5622,-1.5623,-1.5623,-1.5671,-1.5673,-1.5674,-1.5675,-1.571,-1.5711,-1.5711,-1.5689,0,0,-1.5712,-1.5712,0,0,0,0,0,0,0,0,-1.5574,-1.5577,-1.5609,-1.5612,-1.5616,-1.5644,-1.5625,-1.5645,-1.5671,-1.5651,-1.5674,-1.5676,-1.5687,-1.569,-1.5694,-1.5691,-1.5692,-1.5712,-1.5712,-1.5713,-1.5713,0,0,0,0,0,0,0,-1.5573,-1.5576,-1.5599,-1.561,-1.5614,-1.5625,-1.5629,-1.5629,-1.5662,-1.5653,-1.5656,-1.566,-1.5689,-1.5693,-1.5695,-1.5693,-1.5712,-1.5712,-1.5713,-1.5713,-1.5671,-1.567,0,0,0,0,0,0,-1.5567,-1.5574,-1.5598,-1.5601,-1.5598,-1.5624,-1.563,-1.5633,-1.5662,-1.5667,-1.5659,-1.5662,-1.5692,-1.5695,-1.5697,-1.5671,-1.5713,-1.5713,-1.5713,-1.5673,-1.5671,-1.567,0,0,0,0,0,0,-1.5566,-1.5569,-1.5597,-1.5588,-1.5593,-1.5624,-1.5627,-1.5633,-1.5638,-1.5667,-1.5673,-1.5658,-1.5693,-1.5696,-1.569,-1.5673,-1.5713,-1.5713,-1.5674,-1.5672,-1.567,-1.562,0,0,0,0,0,0,-1.5565,-1.5568,-1.5561,-1.5588,-1.5593,-1.559,-1.5626,-1.5633,-1.5638,-1.5643,-1.5667,-1.5672,-1.5694,-1.5689,-1.5691,-1.5674,-1.5714,-1.5676,-1.5673,-1.5671,-1.5624,-1.5617,-1.5611,0,0,0,0,0,-1.5564,-1.5545,-1.556,-1.5563,-1.5584,-1.5589,-1.5592,-1.5619,-1.5637,-1.5629,-1.5647,-1.5671,-1.5675,-1.5688,-1.569,-1.5673,-1.5677,-1.5674,-1.5671,-1.5626,-1.5618,-1.5611,0,0,0,0,0,0,-1.5515,-1.5549,-1.5566,-1.5556,-1.5569,-1.5598,-1.5589,-1.561,-1.5618,-1.5622,-1.5654,-1.5659,-1.5649,-1.5661,-1.5675,-1.5653,-1.5679,-1.5677,-1.5645,-1.5637,-1.5631,-1.5628,-1.5714,0,0,0,0,0,-1.5503,-1.5505,-1.5535,-1.5523,-1.5529,-1.5557,-1.556,-1.558,-1.5595,-1.56,-1.5619,-1.5631,-1.5635,-1.5637,-1.5643,-1.5626,-1.5631,-1.5615,-1.5609,-1.5604,-1.5601,-1.5591,-1.5583,-1.566,-1.566,-1.566,0,0,-1.5478,-1.5497,-1.5496,-1.5513,-1.5526,-1.5526,-1.5562,-1.5561,-1.556,-1.56,-1.5595,-1.5609,-1.5626,-1.5613,-1.5609,-1.5623,-1.5581,-1.56,-1.5596,-1.5595,-1.5587,-1.558,-1.5573,-1.5658,-1.5659,-1.5659,0,0,-1.5433,-1.5448,-1.5439,-1.5451,-1.547,-1.5489,-1.5486,-1.5511,-1.5522,-1.5518,-1.5547,-1.5547,-1.5554,-1.5564,-1.557,-1.5527,-1.5548,-1.5528,-1.5495,-1.5484,-1.5478,-1.5473,-1.5456,-1.545,-1.5525,-1.5525,-1.5525,0,-1.5399,-1.5401,-1.5431,-1.5428,-1.5434,-1.547,-1.546,-1.547,-1.5489,-1.5492,-1.5508,-1.5516,-1.553,-1.552,-1.5509,-1.5514,-1.5511,-1.5525,-1.5477,-1.5472,-1.5468,-1.5451,-1.5445,-1.5522,-1.5522,-1.5523,-1.5523,0,-1.5358,-1.5359,-1.5349,-1.5367,-1.5372,-1.5365,-1.5393,-1.5394,-1.5413,-1.543,-1.5424,-1.5442,-1.5451,-1.5451,-1.5469,-1.5443,-1.545,-1.5471,-1.5499,-1.5457,-1.5442,-1.5436,-1.5518,-1.5519,-1.552,-1.5521,0,0,-1.5282,-1.5316,-1.5312,-1.532,-1.5343,-1.5343,-1.5338,-1.5347,-1.5346,-1.5358,-1.5353,-1.5358,-1.5377,-1.5383,-1.5403,-1.5395,-1.5357,-1.5417,-1.5417,-1.5403,-1.5327,-1.5309,-1.5302,-1.5372,-1.5371,-1.537,-1.5324,0,-1.524,-1.5232,-1.5259,-1.5244,-1.5244,-1.5279,-1.5273,-1.5286,-1.5302,-1.5303,-1.5321,-1.5323,-1.5349,-1.5353,-1.5346,-1.5363,-1.5342,-1.5367,-1.5366,-1.5366,-1.5359,-1.5294,-1.5276,-1.5232,-1.5319,-1.5318,-1.5318,0,-1.5189,-1.5198,-1.5183,-1.5205,-1.5206,-1.5201,-1.5211,-1.5213,-1.5227,-1.5239,-1.5246,-1.5269,-1.5264,-1.5291,-1.5284,-1.53,-1.5302,-1.531,-1.5309,-1.5308,-1.5338,-1.529,-1.5219,-1.5211,-1.5309,-1.531,-1.531,0,-1.5132,-1.5141,-1.5133,-1.5139,-1.5165,-1.516,-1.5171,-1.5187,-1.519,-1.5199,-1.5201,-1.5208,-1.5212,-1.5216,-1.524,-1.5258,-1.5229,-1.5259,-1.5237,-1.5236,-1.5228,-1.5228,-1.5154,-1.5232,-1.5232,-1.5232,-1.5232,0,-1.5081,-1.507,-1.5107,-1.5102,-1.509,-1.5121,-1.5108,-1.5122,-1.5136,-1.5133,-1.5164,-1.516,-1.5193,-1.5193,-1.5212,-1.5201,-1.5203,-1.5212,-1.5216,-1.5208,-1.5206,-1.5208,-1.521,-1.5231,-1.5231,-1.5231,-1.5232,0,-1.5015,-1.504,-1.5033,-1.5059,-1.5065,-1.5055,-1.5076,-1.5072,-1.5089,-1.5085,-1.5086,-1.5113,-1.5114,-1.5139,-1.5146,-1.5159,-1.5139,-1.5151,-1.5134,-1.5137,-1.5113,-1.5114,-1.5036,-1.5026,-1.5112,-1.5111,-1.5111,0,-1.4979,-1.4972,-1.4996,-1.4997,-1.5006,-1.5006,-1.501,-1.5039,-1.5041,-1.5057,-1.505,-1.5054,-1.5058,-1.5058,-1.5078,-1.5083,-1.5093,-1.5065,-1.5094,-1.5085,-1.509,-1.5089,-1.5088,-1.5059,-1.5058,-1.5057,-1.5056,0,-1.4913,-1.4925,-1.4929,-1.4937,-1.494,-1.4947,-1.4956,-1.4955,-1.4987,-1.4987,-1.4989,-1.4992,-1.4999,-1.5001,-1.501,-1.502,-1.5042,-1.5047,-1.5042,-1.5032,-1.5022,-1.5025,-1.5115,-1.5048,-1.5049,-1.505,-1.505,-1.505,-1.486,-1.4854,-1.4869,-1.4872,-1.4882,-1.489,-1.4886,-1.4903,-1.4905,-1.4913,-1.493,-1.4929,-1.4943,-1.4956,-1.4964,-1.4963,-1.4976,-1.497,-1.4967,-1.4965,-1.4959,-1.5023,-1.4964,-1.4965,-1.4965,-1.4965,-1.4965,0,-1.4793,-1.4804,-1.4807,-1.4818,-1.482,-1.4842,-1.4854,-1.4853,-1.4851,-1.4863,-1.4866,-1.4867,-1.487,-1.489,-1.4894,-1.4889,-1.4899,-1.4889,-1.4888,-1.489,-1.4947,-1.495,-1.488,-1.488,-1.488,-1.488,-1.488,-1.488,-1.4758,-1.4748,-1.4762,-1.4757,-1.477,-1.4768,-1.4772,-1.4779,-1.4788,-1.4788,-1.479,-1.4803,-1.4817,-1.4823,-1.4826,-1.4832,-1.4831,-1.4816,-1.4825,-1.4878,-1.4886,-1.4894,-1.4897,-1.4817,-1.4817,-1.4768,-1.4767,-1.4767]}]]